GW6756 Weather Reports


time (UTC)temp
C
wind
direction
speed
KPH
gust
KPH
rain 1hr
cm
rain 24hr
cm
rain mn
cm
humidity
%
barometer
mb
20260505153244 26 115 3.2 3.2 0.00 0.00 0.00 42 1011.6
20260505152741 26 224 8.0 14.5 0.00 0.00 0.00 42 1011.4
20260505152238 25 74 3.2 6.4 0.00 0.00 0.00 47 1011.5
20260505151737 26 161 3.2 3.2 0.00 0.00 0.00 42 1011.6
20260505151235 26 118 0.0 0.0 0.00 0.00 0.00 42 1011.5
20260505150732 25 180 9.7 12.9 0.00 0.00 0.00 42 1011.5
20260505150230 25 188 0.0 1.6 0.00 0.00 0.00 43 1011.6
20260505140200 23 149 4.8 11.3 0.00 0.00 0.00 47 1012.0
20260505130124 20 210 1.6 3.2 0.00 0.00 0.00 53 1012.4
20260505124613 20 148 1.6 1.6 0.00 0.00 0.00 56 1012.1
20260505124109 19 137 1.6 3.2 0.00 0.00 0.00 58 1012.2
20260505123605 19 183 0.0 1.6 0.00 0.00 0.00 58 1012.2
20260505123102 19 257 1.6 3.2 0.00 0.00 0.00 58 1011.9
20260505122559 19 222 3.2 4.8 0.00 0.00 0.00 57 1011.9
20260505122056 18 126 3.2 6.4 0.00 0.00 0.00 58 1011.8
20260505121552 18 102 4.8 4.8 0.00 0.00 0.00 61 1012.0
20260505121049 18 230 3.2 3.2 0.00 0.00 0.00 60 1012.2
20260505120546 18 217 6.4 9.7 0.00 0.00 0.00 60 1011.8
20260505120041 17 165 6.4 6.4 0.00 0.00 0.00 62 1012.0
20260505115536 17 321 3.2 4.8 0.00 0.00 0.00 63 1012.0
20260505115034 17 139 1.6 4.8 0.00 0.00 0.00 63 1011.8
20260505114531 17 196 4.8 9.7 0.00 0.00 0.00 64 1011.8
20260505114027 17 223 3.2 4.8 0.00 0.00 0.00 64 1011.8
20260505113524 17 154 6.4 9.7 0.00 0.00 0.00 65 1011.9
20260505113020 17 143 1.6 3.2 0.00 0.00 0.00 66 1011.9
20260505112516 17 153 0.0 0.0 0.00 0.00 0.00 67 1011.6
20260505112015 16 113 3.2 3.2 0.00 0.00 0.00 67 1011.8
20260505111514 16 168 0.0 0.0 0.00 0.00 0.00 68 1011.6
20260505111010 16 156 4.8 4.8 0.00 0.00 0.00 69 1011.7
20260505110507 15 130 0.0 0.0 0.00 0.00 0.00 70 1011.7
20260505101939 15 298 6.4 9.7 0.00 0.00 0.00 70 1011.4
20260505101438 15 143 1.6 1.6 0.00 0.00 0.00 70 1011.4
20260505100934 15 38 1.6 3.2 0.00 0.00 0.00 70 1011.2
20260505100431 15 122 0.0 0.0 0.00 0.00 0.00 69 1011.2
20260505095926 16 141 0.0 1.6 0.00 0.00 0.00 69 1011.0
20260505095424 16 205 3.2 3.2 0.00 0.00 0.00 68 1011.0
20260505094920 15 140 0.0 0.0 0.00 0.00 0.00 69 1011.2
20260505094417 16 138 0.0 0.0 0.00 0.00 0.00 69 1010.9
20260505093913 15 99 0.0 0.0 0.00 0.00 0.00 69 1011.0
20260505093410 15 158 3.2 3.2 0.00 0.00 0.00 70 1011.1
20260505092907 15 142 0.0 0.0 0.00 0.00 0.00 72 1011.0
20260505092405 14 150 0.0 0.0 0.00 0.00 0.00 72 1011.1
20260505091902 14 136 0.0 0.0 0.00 0.00 0.00 73 1010.9
20260505091400 13 141 0.0 0.0 0.00 0.00 0.00 74 1011.0
20260505090858 14 135 0.0 0.0 0.00 0.00 0.00 74 1011.1
20260505090356 13 153 0.0 0.0 0.00 0.00 0.00 75 1010.8
20260505085853 13 133 0.0 0.0 0.00 0.00 0.00 76 1010.9
20260505085351 13 116 0.0 0.0 0.00 0.00 0.00 75 1010.9
20260505084848 13 138 0.0 0.0 0.00 0.00 0.00 75 1010.9
20260505084346 13 136 0.0 0.0 0.00 0.00 0.00 75 1011.0
20260505083844 13 142 0.0 0.0 0.00 0.00 0.00 74 1011.1
20260505083341 13 130 0.0 0.0 0.00 0.00 0.00 74 1011.2
20260505082838 14 138 0.0 0.0 0.00 0.00 0.00 73 1011.0
20260505082334 14 135 0.0 0.0 0.00 0.00 0.00 72 1011.0
20260505081830 15 147 0.0 0.0 0.00 0.00 0.00 72 1010.7
20260505081327 15 144 0.0 0.0 0.00 0.00 0.00 71 1010.9
20260505080824 15 116 0.0 0.0 0.00 0.00 0.00 71 1011.0
20260505080320 15 148 0.0 0.0 0.00 0.00 0.00 70 1011.0
20260505075815 15 145 0.0 0.0 0.00 0.00 0.00 69 1011.0
20260505075313 15 156 0.0 1.6 0.00 0.00 0.00 68 1011.1
20260505074810 16 130 0.0 0.0 0.00 0.00 0.00 67 1011.2
20260505074307 16 216 0.0 1.6 0.00 0.00 0.00 66 1011.0
20260505073804 16 171 0.0 1.6 0.00 0.00 0.00 66 1011.1
20260505073302 16 153 3.2 3.2 0.00 0.00 0.00 66 1011.0
20260505072759 16 217 3.2 4.8 0.00 0.00 0.00 66 1011.1
20260505072255 16 115 0.0 1.6 0.00 0.00 0.00 66 1011.2
20260505071751 16 148 0.0 1.6 0.00 0.00 0.00 66 1011.0
20260505071247 16 335 3.2 4.8 0.00 0.00 0.00 65 1011.0
20260505070745 16 151 1.6 1.6 0.00 0.00 0.00 64 1010.7
20260505070241 16 186 3.2 6.4 0.00 0.00 0.00 64 1011.0
20260505065737 16 246 4.8 6.4 0.00 0.00 0.00 64 1010.8
20260505065234 16 109 1.6 3.2 0.00 0.00 0.00 65 1010.9
20260505064731 16 191 3.2 3.2 0.00 0.00 0.00 65 1010.8
20260505064229 16 105 0.0 1.6 0.00 0.00 0.00 64 1010.8
20260505063726 15 145 0.0 0.0 0.00 0.00 0.00 66 1010.8
20260505063222 16 156 3.2 3.2 0.00 0.00 0.00 64 1010.8
20260505062719 16 168 0.0 1.6 0.00 0.00 0.00 64 1010.9
20260505062217 16 219 3.2 4.8 0.00 0.00 0.00 64 1010.9
20260505061713 16 191 1.6 1.6 0.00 0.00 0.00 64 1011.0
20260505061211 16 175 6.4 11.3 0.00 0.00 0.00 62 1011.2
20260505060708 16 234 3.2 3.2 0.00 0.00 0.00 62 1011.1
20260505060205 16 263 3.2 4.8 0.00 0.00 0.00 62 1010.8
20260505055700 16 159 1.6 1.6 0.00 0.00 0.00 63 1011.2
20260505055157 16 151 0.0 1.6 0.00 0.00 0.00 63 1010.9
20260505054654 16 165 6.4 6.4 0.00 0.00 0.00 62 1011.1
20260505054152 16 124 6.4 11.3 0.00 0.00 0.00 63 1010.8
20260505053650 16 116 3.2 3.2 0.00 0.00 0.00 63 1011.1
20260505053146 16 233 3.2 4.8 0.00 0.00 0.00 62 1010.9
20260505052643 16 145 0.0 0.0 0.00 0.00 0.00 62 1011.2
20260505052140 16 152 0.0 1.6 0.00 0.00 0.00 62 1011.1
20260505051637 16 256 3.2 4.8 0.00 0.00 0.00 62 1011.0
20260505051136 16 138 1.6 3.2 0.00 0.00 0.00 63 1011.1
20260505050633 16 166 0.0 0.0 0.00 0.00 0.00 63 1011.1
20260505050131 16 203 4.8 4.8 0.00 0.00 0.00 62 1011.2
20260505041601 16 164 1.6 3.2 0.00 0.00 0.00 62 1011.0
20260505041058 16 141 0.0 1.6 0.00 0.00 0.00 61 1011.0
20260505040555 16 174 3.2 4.8 0.00 0.00 0.00 61 1011.0
20260505040052 16 141 1.6 3.2 0.00 0.00 0.00 59 1010.9
20260505035548 16 194 1.6 1.6 0.00 0.00 0.00 60 1011.0
20260505035045 16 132 1.6 1.6 0.00 0.00 0.00 59 1010.9
20260505034541 16 156 0.0 1.6 0.00 0.00 0.00 57 1011.0
20260505034038 16 138 0.0 0.0 0.00 0.00 0.00 56 1011.3
20260505033535 16 159 1.6 1.6 0.00 0.00 0.00 55 1011.2
20260505033034 16 175 3.2 6.4 0.00 0.00 0.00 54 1011.2
20260505032531 16 116 0.0 0.0 0.00 0.00 0.00 53 1011.1
20260505032027 16 123 0.0 1.6 0.00 0.00 0.00 53 1011.1
20260505031525 16 148 1.6 1.6 0.00 0.00 0.00 53 1011.0
20260505031021 16 92 4.8 6.4 0.00 0.00 0.00 51 1011.0
20260505030518 17 125 0.0 0.0 0.00 0.00 0.00 51 1011.1
20260505030014 17 149 0.0 1.6 0.00 0.00 0.00 51 1011.2
20260505025510 17 110 1.6 1.6 0.00 0.00 0.00 50 1011.3
20260505025010 17 150 1.6 3.2 0.00 0.00 0.00 51 1011.2
20260505024505 17 115 0.0 0.0 0.00 0.00 0.00 50 1011.5
20260505024003 17 158 1.6 1.6 0.00 0.00 0.00 50 1011.2
20260505023459 17 95 1.6 3.2 0.00 0.00 0.00 51 1011.3
20260505022957 17 183 3.2 6.4 0.00 0.00 0.00 50 1011.3
20260505022455 17 98 0.0 0.0 0.00 0.00 0.00 51 1011.3
20260505021952 17 140 0.0 0.0 0.00 0.00 0.00 50 1011.2
20260505021448 17 77 0.0 0.0 0.00 0.00 0.00 51 1011.4
20260505020944 17 134 0.0 0.0 0.00 0.00 0.00 49 1011.4
20260505020439 17 110 0.0 0.0 0.00 0.00 0.00 49 1011.2
20260505015937 17 149 0.0 1.6 0.00 0.00 0.00 48 1011.2
20260505015433 17 110 0.0 1.6 0.00 0.00 0.00 48 1011.1
20260505014931 17 141 1.6 1.6 0.00 0.00 0.00 49 1011.3
20260505014427 18 149 1.6 1.6 0.00 0.00 0.00 48 1011.2
20260505013924 18 126 0.0 0.0 0.00 0.00 0.00 47 1011.2
20260505013421 18 123 0.0 0.0 0.00 0.00 0.00 47 1011.3
20260505012919 18 120 3.2 4.8 0.00 0.00 0.00 46 1011.2
20260505012417 18 122 0.0 1.6 0.00 0.00 0.00 46 1011.3
20260505011913 18 172 0.0 0.0 0.00 0.00 0.00 47 1011.2
20260505011410 17 136 1.6 1.6 0.00 0.00 0.00 47 1011.1
20260505010906 17 149 0.0 0.0 0.00 0.00 0.00 47 1011.0
20260505010402 17 110 0.0 0.0 0.00 0.00 0.00 48 1011.0
20260505005858 17 156 1.6 1.6 0.00 0.00 0.00 47 1010.9
20260505005355 17 137 0.0 0.0 0.00 0.00 0.00 48 1010.9
20260505004853 17 138 0.0 0.0 0.00 0.00 0.00 48 1010.8
20260505004349 17 120 0.0 0.0 0.00 0.00 0.00 46 1010.7
20260505003846 18 142 0.0 0.0 0.00 0.00 0.00 47 1010.9
20260505003344 18 132 0.0 0.0 0.00 0.00 0.00 45 1010.6
20260505002839 18 137 0.0 0.0 0.00 0.00 0.00 44 1010.5
20260505002336 19 141 0.0 0.0 0.00 0.00 0.00 42 1010.7
20260505001835 19 157 1.6 1.6 0.00 0.00 0.00 42 1010.5
20260505001331 19 139 1.6 4.8 0.00 0.00 0.00 41 1010.6
20260505000829 20 136 0.0 0.0 0.00 0.00 0.00 42 1010.4
20260505000326 20 145 1.6 3.2 0.00 0.00 0.00 40 1010.8
20260504235823 20 190 1.6 1.6 0.00 0.00 0.00 40 1010.6
20260504235320 20 176 1.6 1.6 0.00 0.00 0.00 39 1010.3
20260504234817 20 130 3.2 3.2 0.00 0.00 0.00 40 1010.5
20260504234314 20 144 3.2 6.4 0.00 0.00 0.00 38 1010.5
20260504233810 20 268 3.2 4.8 0.00 0.00 0.00 38 1010.2
20260504233306 20 198 4.8 4.8 0.00 0.00 0.00 38 1010.3
20260504232803 21 179 1.6 1.6 0.00 0.00 0.00 38 1010.3
20260504232301 21 126 1.6 3.2 0.00 0.00 0.00 37 1010.3
20260504231757 21 148 1.6 3.2 0.00 0.00 0.00 37 1010.3
20260504231254 21 194 3.2 4.8 0.00 0.00 0.00 37 1010.1
20260504230750 21 242 6.4 6.4 0.00 0.00 0.00 36 1010.3
20260504230248 21 143 1.6 3.2 0.00 0.00 0.00 36 1010.2
20260504225746 21 141 0.0 0.0 0.00 0.00 0.00 36 1010.1
20260504225242 21 149 3.2 4.8 0.00 0.00 0.00 36 1010.2
20260504224740 21 186 4.8 6.4 0.00 0.00 0.00 36 1010.0
20260504224237 21 211 0.0 1.6 0.00 0.00 0.00 35 1010.2
20260504223733 21 329 6.4 6.4 0.00 0.00 0.00 36 1010.4
20260504223229 21 169 1.6 3.2 0.00 0.00 0.00 35 1010.2
20260504222726 21 257 3.2 6.4 0.00 0.00 0.00 36 1010.2
20260504222223 22 117 6.4 11.3 0.00 0.00 0.00 35 1010.2
20260504221720 22 23 4.8 6.4 0.00 0.00 0.00 36 1010.2
20260504221217 22 162 6.4 6.4 0.00 0.00 0.00 34 1010.3
20260504220714 22 227 3.2 3.2 0.00 0.00 0.00 35 1010.1
20260504220212 22 168 3.2 4.8 0.00 0.00 0.00 36 1010.5
20260504215708 22 173 8.0 11.3 0.00 0.00 0.00 35 1010.5
20260504215205 22 223 4.8 4.8 0.00 0.00 0.00 35 1010.4
20260504214700 22 178 6.4 9.7 0.00 0.00 0.00 35 1010.4
20260504214157 22 21 3.2 4.8 0.00 0.00 0.00 35 1010.4
20260504213654 22 222 4.8 6.4 0.00 0.00 0.00 37 1010.4
20260504213151 22 354 3.2 4.8 0.00 0.00 0.00 35 1010.7
20260504212647 22 123 0.0 1.6 0.00 0.00 0.00 35 1010.6
20260504212144 22 203 1.6 3.2 0.00 0.00 0.00 36 1010.4
20260504211642 22 157 1.6 1.6 0.00 0.00 0.00 34 1010.5
20260504211137 22 17 1.6 1.6 0.00 0.00 0.00 36 1010.2
20260504210636 22 227 6.4 6.4 0.00 0.00 0.00 34 1010.4
20260504210132 22 181 1.6 1.6 0.00 0.00 0.00 37 1010.4
20260504205629 22 64 11.3 14.5 0.00 0.00 0.00 33 1010.4
20260504205126 23 155 4.8 6.4 0.00 0.00 0.00 34 1010.4
20260504204625 23 256 3.2 4.8 0.00 0.00 0.00 35 1010.6
20260504204124 23 165 9.7 16.1 0.00 0.00 0.00 32 1010.5
20260504203622 23 108 3.2 3.2 0.00 0.00 0.00 34 1010.4
20260504203120 22 44 6.4 11.3 0.00 0.00 0.00 33 1010.3
20260504202620 22 186 8.0 11.3 0.00 0.00 0.00 34 1010.5
20260504202117 23 141 1.6 3.2 0.00 0.00 0.00 35 1010.4
20260504201614 23 151 3.2 4.8 0.00 0.00 0.00 32 1010.5
20260504201112 22 205 3.2 4.8 0.00 0.00 0.00 34 1010.5
20260504200608 23 91 3.2 3.2 0.00 0.00 0.00 33 1010.5
20260504200104 23 117 3.2 3.2 0.00 0.00 0.00 33 1010.6
20260504195601 22 189 4.8 6.4 0.00 0.00 0.00 33 1010.6
20260504195057 22 150 3.2 4.8 0.00 0.00 0.00 34 1010.5
20260504194554 23 148 6.4 9.7 0.00 0.00 0.00 31 1010.5
20260504194049 23 143 6.4 12.9 0.00 0.00 0.00 33 1010.5
20260504193546 23 233 3.2 4.8 0.00 0.00 0.00 35 1010.4
20260504193045 22 116 3.2 3.2 0.00 0.00 0.00 33 1010.5
20260504192543 23 136 0.0 1.6 0.00 0.00 0.00 33 1010.7
20260504192041 23 125 0.0 1.6 0.00 0.00 0.00 33 1010.5
20260504191538 23 175 3.2 3.2 0.00 0.00 0.00 32 1010.9
20260504191034 23 281 6.4 6.4 0.00 0.00 0.00 33 1010.9
20260504190531 22 156 3.2 6.4 0.00 0.00 0.00 33 1011.1
20260504190027 22 26 1.6 1.6 0.00 0.00 0.00 32 1011.1
20260504185524 22 117 3.2 4.8 0.00 0.00 0.00 32 1011.2
20260504185020 22 328 6.4 11.3 0.00 0.00 0.00 33 1011.2
20260504184515 22 122 0.0 1.6 0.00 0.00 0.00 34 1011.2
20260504184011 22 162 3.2 4.8 0.00 0.00 0.00 37 1011.3
20260504183509 23 359 6.4 11.3 0.00 0.00 0.00 34 1011.4
20260504183007 22 16 9.7 12.9 0.00 0.00 0.00 34 1011.4
20260504182503 22 350 11.3 12.9 0.00 0.00 0.00 35 1011.5
20260504182001 22 250 3.2 3.2 0.00 0.00 0.00 34 1011.6
20260504181457 22 186 4.8 9.7 0.00 0.00 0.00 38 1011.4
20260504180956 21 7 6.4 6.4 0.00 0.00 0.00 34 1011.6
20260504180455 21 321 8.0 9.7 0.00 0.00 0.00 35 1011.6
20260504175953 22 33 3.2 6.4 0.00 0.00 0.00 34 1011.6
20260504175450 21 320 3.2 4.8 0.00 0.00 0.00 35 1011.8
20260504174947 22 21 9.7 12.9 0.00 0.00 0.00 33 1011.9
20260504174444 21 216 4.8 6.4 0.00 0.00 0.00 35 1011.9
20260504173942 21 125 1.6 1.6 0.00 0.00 0.00 36 1012.0
20260504173437 21 176 8.0 11.3 0.00 0.00 0.00 35 1012.2
20260504172936 21 153 3.2 3.2 0.00 0.00 0.00 37 1012.0
20260504172431 21 49 3.2 4.8 0.00 0.00 0.00 35 1012.1
20260504171928 20 234 4.8 6.4 0.00 0.00 0.00 36 1012.3
20260504171425 21 1 6.4 6.4 0.00 0.00 0.00 36 1012.3
20260504170922 21 131 4.8 9.7 0.00 0.00 0.00 36 1012.5
20260504170418 20 126 1.6 3.2 0.00 0.00 0.00 36 1012.5
20260504160337 20 166 3.2 4.8 0.00 0.00 0.00 35 1013.4